sat.trackr.live / text

‹ back to catalog

STARLINK-34831

NORAD 65345 · 2025-189Y

PAYLOAD ACTIVE UNKNOWN

§ Identity

Operator
Country
US
Launch date
2025-08-27
Launch site
AFETR
Launch vehicle
Mass (kg)
RCS (m²)

Purposes: comms

External: N2YO · Heavens-Above · Gunter

§ Orbital elements

Epoch: 2026-05-25T05:00:35.987040Z

Period
94.01 min
Inclination
53.1575°
Eccentricity
0.0000903
Mean motion
15.31716778 rev/d
Perigee alt
470.1 km
Apogee alt
471.3 km
Semi-major
6,848.8 km
B*
3.9849e-4
RAAN
211.2139°
Arg perigee
72.7704°
Mean anomaly
287.3396°
Rev number
4,283

§ Raw data

STARLINK-348311 65345U 25189Y   26145.20874985  .00012027  00000+0  39849-3 0  99962 65345  53.1575 211.2139 0000903  72.7704 287.3396 15.31716778 42830

JSON: /api/v1/satellites/65345 · /tle

For live sub-satellite position, see the globe view (requires WebGL).

§ Visibility from observer

Set your observer location to see the next 7 days of passes ≥ 10°. The values pass through the URL so the page stays shareable.

No JS? Fill the form by hand. The geolocation button needs JavaScript.